Location: Acton
(51.4942°N, 0.2232°W)
Time: 14:12:54
(UTC+00:00)

Okean 1-7 Rocket - Pass Details

Date: 21 January 2021
Orbit: 615 x 650 km, 82.5° (Epoch: 28 February)

Event Time Altitude Azimuth Distance (km) Brightness Sun altitude
Exits shadow 05:23:31 46° 342° (NNW) 867 4.1 -22.9°
Maximum altitude 05:24:49 81° 262° (W) 658 3.5 -22.7°
Drops below altitude 10° 05:29:20 10° 175° (S) 2,025 6.3 -22.0°
Sets 05:31:33 0° 174° (S) 2,924 7.2 -21.7°
